Location: Kazanice
(53.5528°N, 19.7258°E)
Time: 22:24:58
(UTC+01:00)

ISS - Pass Details

Date: 27 January 2019
Orbit: 403 x 411 km, 51.6° (Epoch: 20 February)

Event Time Altitude Azimuth Distance (km) Brightness Sun altitude
Rises 16:47:17 0° 204° (SSW) 2,324 0.9 -5.3°
Reaches altitude 10° 16:49:59 10° 180° (S) 1,470 -0.7 -5.7°
Maximum altitude 16:51:57 15° 144° (SE) 1,210 -1.5 -6.0°
Drops below altitude 10° 16:53:55 10° 107° (ESE) 1,478 -1.4 -6.2°
Enters shadow 16:55:02 - 94° (E) 1,797 -1.1 -6.4°
